PDT,Max TemperatureF,Mean TemperatureF,Min TemperatureF,Max Dew PointF,MeanDew PointF,Min DewpointF,Max Humidity, Mean Humidity, Min Humidity, Max Sea Level PressureIn, Mean Sea Level PressureIn, Min Sea Level PressureIn, Max VisibilityMiles, Mean VisibilityMiles, Min VisibilityMiles, Max Wind SpeedMPH, Mean Wind SpeedMPH, Max Gust SpeedMPH,PrecipitationIn, CloudCover, Events, WindDirDegrees
2013-3-1,61,56,50,49,48,47,89,75,60,30.45,30.40,30.32,10,10,10,8,3,13,0.00,7,,150
2013-3-2,56,48,40,48,44,37,100,83,66,30.32,30.23,30.17,10,10,7,15,3,21,0.03,7,Rain,271
2013-3-3,50,40,29,37,33,28,100,73,46,30.33,30.30,30.27,10,10,10,8,1,10,T,3,,232
2013-3-4,58,42,26,34,28,24,92,60,28,30.26,30.10,29.92,10,9,2,16,6,22,0.00,1,,99
2013-3-5,45,43,41,39,35,25,89,67,45,29.92,29.80,29.67,10,10,6,13,6,17,0.18,7,Rain,117
2013-3-6,46,43,40,41,39,37,96,86,76,29.97,29.70,29.56,10,10,5,14,4,17,0.27,8,Rain,170
2013-3-7,55,45,35,39,34,29,85,60,35,30.07,30.03,29.99,10,10,10,10,4,15,0.00,2,,134
2013-3-8,59,43,27,38,32,25,92,63,33,30.22,30.09,30.05,10,10,10,10,3,17,0.00,0,,308
2013-3-9,59,43,27,39,32,25,92,65,37,30.50,30.40,30.24,10,8,1,7,1,9,0.00,2,,140
2013-3-10,49,41,33,42,38,30,92,82,71,30.51,30.47,30.43,10,10,10,5,1,7,0.01,7,Rain,236
2013-3-11,54,49,44,47,44,41,92,85,77,30.43,30.36,30.25,10,10,6,9,2,12,0.01,8,Rain,120
2013-3-12,61,54,46,48,46,43,100,76,51,30.23,30.19,30.16,10,10,7,10,3,14,0.00,7,,164
2013-3-13,64,56,48,47,45,43,86,69,52,30.23,30.18,30.10,10,10,10,8,2,10,0.00,4,,116
2013-3-14,61,55,48,46,43,35,86,63,39,30.21,30.12,30.06,10,10,10,13,5,18,T,3,Rain,142
2013-3-15,63,54,44,48,46,44,86,69,52,30.24,30.21,30.17,10,10,10,9,3,13,T,6,Rain,91
2013-3-16,52,46,40,46,42,34,86,75,63,30.18,30.12,30.02,10,10,5,18,5,26,0.05,8,Rain,225
2013-3-17,50,44,38,34,33,31,79,65,50,30.31,30.24,30.15,10,10,10,14,5,18,0.01,7,Rain,263
2013-3-18,54,44,33,36,34,31,82,66,50,30.30,30.26,30.19,10,10,10,7,2,10,0.00,5,,153
2013-3-19,52,43,34,41,36,31,92,71,50,30.16,29.94,29.68,10,9,5,17,6,21,0.58,5,Rain,124
2013-3-20,54,46,37,49,42,33,93,74,54,30.17,29.74,29.53,10,9,4,21,10,29,0.29,7,Rain,216
2013-3-21,50,43,36,37,34,32,89,72,54,30.32,30.25,30.18,10,10,10,21,6,26,0.04,7,Rain,256
2013-3-22,46,39,32,36,34,31,96,79,62,30.40,30.35,30.31,10,10,4,14,2,18,0.07,6,Rain,261
2013-3-23,50,42,33,36,33,23,100,69,38,30.41,30.37,30.29,10,9,2,10,2,15,T,3,,234
2013-3-24,56,45,34,35,31,27,92,64,35,30.29,30.20,30.10,10,10,10,15,4,20,0.00,4,,110
2013-3-25,62,49,36,46,37,31,93,64,34,30.09,30.00,29.92,10,10,10,10,2,13,0.01,3,Rain,264
2013-3-26,54,46,37,45,41,37,96,81,66,30.04,30.00,29.98,10,10,10,7,1,9,0.01,6,,112
2013-3-27,66,52,38,50,43,38,100,72,43,30.00,29.95,29.90,10,9,2,10,3,14,0.01,5,Rain,166
2013-3-28,66,57,47,49,46,42,93,71,48,30.14,30.05,30.00,10,10,10,10,3,15,T,6,,123
2013-3-29,68,58,47,49,46,41,100,70,40,30.22,30.18,30.14,10,10,10,9,2,13,0.01,5,Rain,295
2013-3-30,78,59,39,51,45,37,92,64,36,30.20,30.10,29.98,10,10,10,10,3,13,0.00,0,,281
2013-3-31,75,59,42,49,45,39,89,62,35,30.01,29.97,29.89,10,10,10,12,2,15,0.00,0,,273